[[{"header":{"parameterUnit":"m.s-1","parameterCategory":2,"la1":30.2991,"la2":30.254,"lo1":-89.0895,"lo2":-89.0444,"dy":0.0017,"dx":0.0017,"nx":28,"ny":28,"refTime":"2023-08-03T03:00:00:Z","depth":"0","parameterNumber":2,"parameterNumberName":"U-component_of_CURRENTS"},"data":[0,0,0,0,0,0,0,0,0,0,0,0,0,0,0,0,0,0,0,0,0,0,0,0,0,0,0,0,0,0,0,0,0,0,0,0,0,0,0,0,0,0,0,0,0,0,0,0,0,0,0,0,0,0,0,0,0,0,0.3136,0.3135,0,0.3055,0.3054,0.3053,0.2991,0.299,0.2989,0.2989,0.2915,0.2913,0.2912,0,0,0,0,0,0,0,0,0,0,0,0,0,0.3298,0.3295,0.3136,0.3135,0.3134,0.3055,0.3054,0.3053,0.2991,0.299,0.2989,0.2988,0.2915,0.2913,0.2912,0,0,0,0,0,0,0,0,0,0,0,0,0,0.3225,0.3295,0.3136,0.3092,0.3087,0.3055,0.3054,0.3053,0.2991,0.299,0.2989,0.2988,0.2915,0.2914,0.2912,0.2921,0,0,0.2906,0.2905,0,0,0,0,0,0,0,0,0.3229,0.3219,0.31,0.3095,0.309,0.303,0.3084,0.3009,0.2991,0.3029,0.2989,0.2987,0.2954,0.2949,0.2938,0.2918,0.2915,0.2906,0.2904,0.2904,0.2903,0,0,0,0,0,0,0,0.3234,0.3223,0.3105,0.3099,0.3092,0.3097,0.3085,0.307,0.3,0.3026,0.3021,0.301,0.2951,0.294,0.2936,0.2914,0.2906,0.2904,0.2903,0.2902,0.2962,0.2965,0,0,0,0,0,0,0.3239,0.3227,0.3108,0.3103,0.3156,0.3095,0.3082,0.3052,0.3,0.299,0.3011,0.3007,0.2944,0.2938,0.2933,0.302,0.2904,0.2902,0.2901,0.2959,0.2963,0.2966,0,0,0,0,0,0,0.3242,0.3228,0.3111,0.3163,0.3149,0.3093,0.306,0.3051,0.3044,0.2988,0.2979,0.3014,0.2943,0.2936,0.2942,0.3013,0.2901,0.2899,0.2956,0.296,0.2964,0.3143,0,0,0,0,0,0,0.3247,0.3229,0.3228,0.3163,0.3146,0.3107,0.3061,0.305,0.3038,0.3032,0.2988,0.2979,0.2941,0.2945,0.294,0.3008,0.2898,0.2952,0.2958,0.2963,0.3134,0.3153,0.3169,0,0,0,0,0,0.3253,0.325,0.3228,0.3215,0.3138,0.3108,0.3101,0.3059,0.3039,0.3048,0.3025,0.2981,0.2975,0.2946,0.2939,0.3009,0.295,0.2956,0.2962,0.3126,0.3149,0.3169,0,0,0,0,0,0,0.3311,0.3241,0.3216,0.3189,0.3159,0.3097,0.3101,0.3073,0.306,0.306,0.3007,0.2998,0.304,0.2993,0.2962,0.3041,0.2959,0.2965,0.3086,0.3107,0.3125,0.3209,0.2896,0,0,0,0,0,0.3326,0.3306,0.3245,0.3226,0.3215,0.3164,0.3152,0.3124,0.3094,0.3087,0.3063,0.3048,0.3061,0.3056,0.3052,0.3083,0.3116,0.3125,0.3143,0.3159,0.3224,0.3366,0.3405,0.2986,0.2986,0.2986,0,0,0.3337,0.3301,0.3286,0.324,0.3212,0.3224,0.3155,0.3142,0.3175,0.3083,0.3132,0.3111,0.3084,0.3133,0.3147,0.31,0.3282,0.3167,0.318,0.3238,0.3378,0.3419,0.3456,0.299,0.2989,0.2989,0,0,0.3359,0.3325,0.3322,0.3314,0.3284,0.3272,0.3275,0.3235,0.3243,0.327,0.3238,0.3273,0.325,0.3279,0.3282,0.3395,0.3379,0.3373,0.3527,0.3664,0.3702,0.3735,0.3784,0.382,0.3374,0.3375,0.3375,0,0.3381,0.3367,0.3321,0.3333,0.335,0.3304,0.3335,0.3344,0.3321,0.3362,0.3308,0.3381,0.3342,0.3458,0.3497,0.3445,0.3491,0.3446,0.3695,0.3729,0.376,0.3802,0.384,0.3384,0.3383,0.3382,0.3381,0,0.3394,0.3411,0.3417,0.3427,0.3445,0.3462,0.3472,0.3514,0.352,0.353,0.3636,0.3614,0.366,0.3655,0.3609,0.381,0.3756,0.3709,0.3652,0.3815,0.3845,0.3882,0.3398,0.3394,0.3392,0.3389,0,0,0.3369,0.3419,0.3421,0.3481,0.3503,0.3529,0.3617,0.3692,0.3778,0.3795,0.3916,0.3964,0.3959,0.3968,0.3932,0.4052,0.4272,0.3988,0.3991,0.4057,0.4542,0.433,0.4348,0.4283,0.4292,0.4298,0.4457,0,0.34,0.3477,0.3483,0.3596,0.3657,0.3688,0.3782,0.3855,0.3906,0.4013,0.4059,0.4137,0.4073,0.4101,0.4228,0.426,0.4387,0.4231,0.4359,0.4362,0.4174,0.4391,0.4045,0.4146,0.4493,0.4499,0.4503,0,0.3399,0.3478,0.3588,0.374,0.3765,0.3828,0.4002,0.4071,0.4206,0.4244,0.4354,0.4363,0.4527,0.4439,0.4669,0.4575,0.4605,0.463,0.4635,0.442,0.4223,0.4048,0.4199,0.4033,0.4559,0.4555,0.4551,0,0.3438,0.355,0.3666,0.3707,0.3859,0.3938,0.4014,0.4146,0.4226,0.4392,0.4454,0.4635,0.4689,0.4842,0.4849,0.48,0.5078,0.499,0.4839,0.4819,0.4544,0.4485,0.4575,0.5219,0.5218,0.5218,0.5218,0,0.3477,0.357,0.3698,0.3773,0.3933,0.4,0.4157,0.4254,0.4379,0.4482,0.4568,0.4673,0.4808,0.4925,0.497,0.5007,0.5174,0.4945,0.4896,0.4581,0.4528,0.4378,0.433,0.5224,0.5223,0.5221,0.522,0,0.3508,0.3571,0.3739,0.3916,0.3957,0.4078,0.4202,0.4308,0.4413,0.4551,0.4605,0.4746,0.4891,0.498,0.5172,0.5095,0.5008,0.5147,0.4716,0.4615,0.427,0.4242,0.4239,0.4139,0.5039,0.5036,0.5033,0,0.3527,0.3619,0.3834,0.392,0.3997,0.4138,0.4218,0.4323,0.4398,0.458,0.4641,0.4801,0.4883,0.5037,0.4957,0.5,0.4901,0.4672,0.4531,0.4279,0.4217,0.4113,0.4024,0.4216,0.4207,0.4199,0.4193,0,0.3618,0.3698,0.3849,0.4019,0.4121,0.4205,0.4301,0.4348,0.4459,0.4535,0.4626,0.4711,0.4777,0.462,0.4613,0.4596,0.4378,0.451,0.4409,0.3749,0.3494,0.3355,0.4033,0.4124,0.4131,0.4136,0.414,0.4143,0.3684,0.3807,0.3987,0.4131,0.4219,0.4235,0.4217,0.4284,0.4329,0.4316,0.4499,0.4448,0.4274,0.4195,0.4162,0.376,0.3937,0.3557,0.3595,0.3553,0.3318,0.3807,0.3733,0.3738,0.3741,0.3745,0.3748,0,0.3771,0.3893,0.4062,0.4188,0.4212,0.4241,0.4233,0.4119,0.4057,0.409,0.4083,0.3801,0.3579,0.3432,0.3027,0.2839,0.2767,0.2756,0.2554,0.2558,0.311,0.2927,0.2479,0.2479,0.2479,0.248,0.248,0.248,0.3828,0.3996,0.4079,0.4133,0.4151,0.4007,0.3927,0.3759,0.368,0.3404,0.3182,0.3134,0.2949,0.2572,0.2226,0.2168,0.2069,0.1893,0.2086,0.2437,0.2515,0.2588,0.2406,0.1857,0.1856,0.1329,0.1325,0.1321]},{"header":{"parameterUnit":"m.s-1","parameterCategory":2,"la1":30.2991,"la2":30.254,"lo1":-89.0895,"lo2":-89.0444,"dy":0.0017,"dx":0.0017,"nx":28,"ny":28,"refTime":"2023-08-03T03:00:00:Z","depth":"0","parameterNumber":3,"parameterNumberName":"V-component_of_CURRENTS"},"data":[0,0,0,0,0,0,0,0,0,0,0,0,0,0,0,0,0,0,0,0,0,0,0,0,0,0,0,0,0,0,0,0,0,0,0,0,0,0,0,0,0,0,0,0,0,0,0,0,0,0,0,0,0,0,0,0,0,0,0.0142,0.0142,0,0.0131,0.0131,0.0131,0.011,0.0109,0.0109,0.0108,0.0071,0.0071,0.007,0,0,0,0,0,0,0,0,0,0,0,0,0,0.0129,0.013,0.0142,0.0142,0.0142,0.0132,0.0131,0.0131,0.011,0.0109,0.0109,0.0108,0.0072,0.0071,0.007,0,0,0,0,0,0,0,0,0,0,0,0,0,0.0128,0.013,0.0142,0.013,0.0129,0.0132,0.0131,0.0131,0.011,0.0109,0.0109,0.0108,0.0072,0.0071,0.007,0.0076,0,0,0.0067,0.0067,0,0,0,0,0,0,0,0,0.0128,0.0128,0.0132,0.0131,0.013,0.0122,0.0113,0.0111,0.011,0.0117,0.0108,0.0108,0.0086,0.0084,0.0083,0.0074,0.0072,0.0067,0.0066,0.0066,0.0066,0,0,0,0,0,0,0,0.0128,0.0129,0.0137,0.0132,0.013,0.0121,0.012,0.0113,0.0104,0.0116,0.0114,0.0114,0.0086,0.0084,0.0082,0.0072,0.0067,0.0066,0.0066,0.0065,0.008,0.0081,0,0,0,0,0,0,0.0132,0.0129,0.0137,0.0137,0.0128,0.0122,0.0121,0.0124,0.0105,0.0101,0.0115,0.0113,0.0086,0.0083,0.0081,0.0092,0.0066,0.0065,0.0065,0.0079,0.008,0.0081,0,0,0,0,0,0,0.0132,0.0133,0.0138,0.0133,0.0133,0.0123,0.0127,0.0125,0.0126,0.0104,0.01,0.0119,0.0086,0.0082,0.0082,0.009,0.0065,0.0064,0.0078,0.0079,0.008,0.0112,0,0,0,0,0,0,0.0132,0.0133,0.0135,0.0133,0.0133,0.015,0.0127,0.0125,0.0127,0.0125,0.0106,0.0102,0.0085,0.0083,0.0081,0.0089,0.0063,0.0076,0.0078,0.008,0.0109,0.0114,0.0118,0,0,0,0,0,0.0131,0.014,0.0136,0.0136,0.0137,0.0151,0.015,0.014,0.0128,0.0137,0.0122,0.0103,0.0093,0.0083,0.008,0.0088,0.0076,0.0078,0.008,0.0108,0.0113,0.0118,0,0,0,0,0,0,0.0128,0.0139,0.0134,0.0142,0.015,0.0147,0.0152,0.0146,0.0142,0.0139,0.0113,0.0109,0.0113,0.0101,0.0091,0.0099,0.0082,0.0084,0.0104,0.0109,0.0113,0.0142,0.0062,0,0,0,0,0,0.013,0.0145,0.0149,0.0157,0.0163,0.0159,0.0161,0.016,0.0156,0.0153,0.0139,0.0127,0.0121,0.0114,0.011,0.0112,0.0151,0.0117,0.0121,0.0125,0.0148,0.0247,0.0263,0.0088,0.0088,0.0088,0,0,0.0129,0.0138,0.0144,0.0159,0.0161,0.0177,0.0159,0.0173,0.0181,0.015,0.0155,0.0144,0.0127,0.0131,0.0131,0.0119,0.0188,0.0128,0.0131,0.0152,0.0251,0.0269,0.0284,0.0089,0.0089,0.0089,0,0,0.0147,0.0146,0.0169,0.018,0.0195,0.0194,0.0201,0.0206,0.0204,0.0215,0.0191,0.0194,0.018,0.0172,0.0165,0.0194,0.0212,0.0182,0.022,0.0316,0.0332,0.0346,0.039,0.0409,0.0179,0.0179,0.0179,0,0.0143,0.0169,0.0177,0.0202,0.0204,0.0204,0.0221,0.0227,0.023,0.0237,0.0225,0.0235,0.0206,0.0222,0.0219,0.0204,0.0251,0.0197,0.0324,0.034,0.0354,0.0396,0.0416,0.0181,0.0181,0.0181,0.018,0,0.0184,0.0197,0.0211,0.0239,0.0247,0.0263,0.027,0.0282,0.0279,0.0288,0.0314,0.0299,0.031,0.029,0.0255,0.0327,0.0322,0.0323,0.0315,0.0374,0.0413,0.0433,0.0183,0.0183,0.0182,0.0182,0,0,0.0189,0.023,0.0234,0.0246,0.0264,0.0278,0.0295,0.0316,0.0353,0.0358,0.0415,0.0381,0.0393,0.0387,0.0357,0.0415,0.0522,0.0408,0.0412,0.0457,0.0716,0.0617,0.0629,0.056,0.0564,0.0567,0.0692,0,0.0212,0.0257,0.0269,0.0299,0.0314,0.0317,0.0341,0.0364,0.039,0.0453,0.0455,0.0502,0.0425,0.0448,0.0492,0.0542,0.0583,0.0487,0.0648,0.0652,0.0563,0.0652,0.0615,0.0716,0.0712,0.0715,0.0718,0,0.0246,0.0268,0.0298,0.0329,0.0338,0.0358,0.0403,0.0429,0.0505,0.0536,0.0587,0.0616,0.068,0.0628,0.0744,0.0695,0.0702,0.0726,0.0732,0.0651,0.0592,0.0662,0.0753,0.0654,0.0749,0.0747,0.0744,0,0.0246,0.0286,0.0306,0.0315,0.0355,0.037,0.0394,0.0454,0.0515,0.0613,0.0701,0.0764,0.0848,0.0892,0.0901,0.0858,0.1047,0.0999,0.0904,0.0895,0.09,0.0884,0.0924,0.1086,0.1086,0.1086,0.1085,0,0.026,0.0279,0.0312,0.0324,0.0375,0.0386,0.0468,0.0503,0.0611,0.0736,0.0756,0.0888,0.0933,0.1027,0.0997,0.1022,0.1127,0.094,0.0943,0.0901,0.0884,0.0823,0.0758,0.109,0.1089,0.1088,0.1088,0,0.0267,0.0281,0.0319,0.0359,0.0379,0.042,0.0525,0.0612,0.0684,0.0862,0.0914,0.1046,0.117,0.1169,0.1268,0.1158,0.1116,0.1139,0.1049,0.1036,0.0806,0.0743,0.0798,0.0769,0.1076,0.1075,0.1074,0,0.028,0.0296,0.0356,0.0405,0.0428,0.0496,0.0575,0.0647,0.0764,0.097,0.1089,0.1236,0.1379,0.1436,0.1302,0.1241,0.1128,0.1085,0.0971,0.0812,0.0748,0.0702,0.0671,0.099,0.0988,0.0987,0.0985,0,0.0318,0.0338,0.0381,0.0472,0.0549,0.0649,0.0763,0.0868,0.1,0.116,0.1395,0.1523,0.1543,0.1496,0.1327,0.1237,0.0991,0.1047,0.0961,0.0747,0.0635,0.0601,0.0844,0.0972,0.0974,0.0975,0.0975,0.0976,0.0368,0.0414,0.048,0.0564,0.0663,0.0807,0.0915,0.1072,0.1271,0.1526,0.1613,0.1821,0.163,0.1424,0.1273,0.0886,0.0918,0.0749,0.0707,0.0692,0.0599,0.0762,0.0829,0.083,0.083,0.083,0.0831,0,0.0444,0.0494,0.0578,0.0689,0.0808,0.0847,0.1056,0.1188,0.1441,0.1677,0.1874,0.188,0.1648,0.1353,0.0833,0.0595,0.0534,0.0468,0.043,0.0433,0.0665,0.059,0.0514,0.0514,0.0514,0.0515,0.0515,0.0515,0.0494,0.0581,0.061,0.0791,0.0885,0.1072,0.1204,0.1398,0.1592,0.1853,0.1971,0.2039,0.1756,0.0952,0.0438,0.033,0.0219,0.0155,0.0135,0.029,0.0313,0.0336,0.0252,0.0106,0.0106,-0.0071,-0.0074,-0.0075]}],[{"header":{"parameterUnit":"m.s-1","parameterCategory":2,"la1":30.2991,"la2":30.254,"lo1":-89.0895,"lo2":-89.0444,"dy":0.0017,"dx":0.0017,"nx":28,"ny":28,"refTime":"2023-08-03T03:00:00:Z","depth":"2","parameterNumber":2,"parameterNumberName":"U-component_of_CURRENTS"},"data":[0,0,0,0,0,0,0,0,0,0,0,0,0,0,0,0,0,0,0,0,0,0,0,0,0,0,0,0,0,0,0,0,0,0,0,0,0,0,0,0,0,0,0,0,0,0,0,0,0,0,0,0,0,0,0,0,0,0,0.2178,0.2178,0,0.2189,0.2189,0.2189,0.2191,0.2191,0.219,0.219,0.216,0.2159,0.2159,0,0,0,0,0,0,0,0,0,0,0,0,0,0.2236,0.2235,0.2178,0.2178,0.2178,0.2189,0.2189,0.2189,0.2191,0.2191,0.219,0.219,0.216,0.2159,0.2158,0,0,0,0,0,0,0,0,0,0,0,0,0,0.2227,0.2234,0.2178,0.2178,0.2178,0.2189,0.2189,0.219,0.2191,0.2191,0.219,0.219,0.216,0.2159,0.2158,0.2161,0,0,0.2156,0.2155,0,0,0,0,0,0,0,0,0.2227,0.2225,0.2178,0.2178,0.2178,0.2187,0.2199,0.2177,0.2191,0.2188,0.219,0.219,0.2164,0.2163,0.2169,0.216,0.2158,0.2156,0.2155,0.2155,0.2155,0,0,0,0,0,0,0,0.2228,0.2225,0.2184,0.2178,0.2178,0.2205,0.2203,0.2195,0.2179,0.2188,0.2188,0.2187,0.2164,0.217,0.2168,0.2158,0.2156,0.2155,0.2154,0.2154,0.2202,0.2203,0,0,0,0,0,0,0.2219,0.2225,0.2183,0.2184,0.22,0.2204,0.2201,0.2186,0.218,0.2178,0.2187,0.2187,0.2171,0.2169,0.2167,0.2216,0.2155,0.2154,0.2154,0.22,0.2202,0.2204,0,0,0,0,0,0,0.222,0.2215,0.2183,0.2205,0.2202,0.2202,0.2185,0.2186,0.2204,0.2179,0.2177,0.2205,0.2171,0.2168,0.2193,0.2213,0.2154,0.2153,0.2198,0.22,0.2203,0.2285,0,0,0,0,0,0,0.2221,0.2215,0.2227,0.2203,0.22,0.2192,0.2186,0.2187,0.2202,0.2202,0.2194,0.219,0.217,0.2194,0.2192,0.2211,0.2152,0.2195,0.2199,0.2202,0.228,0.229,0.2299,0,0,0,0,0,0.2223,0.2229,0.2227,0.2223,0.2207,0.2192,0.2194,0.2195,0.2204,0.2211,0.2226,0.2191,0.2213,0.2196,0.2192,0.2211,0.2194,0.2198,0.2202,0.2276,0.2288,0.2298,0,0,0,0,0,0,0.2249,0.2229,0.2226,0.2223,0.2212,0.2192,0.2206,0.2207,0.2227,0.2235,0.2218,0.2216,0.2237,0.2222,0.2203,0.2236,0.2195,0.2199,0.2253,0.2264,0.2273,0.2338,0.2152,0,0,0,0,0,0.2262,0.2258,0.2242,0.2232,0.2236,0.2228,0.2233,0.2228,0.223,0.2239,0.2243,0.2248,0.225,0.2257,0.225,0.2277,0.2325,0.2286,0.2296,0.2304,0.2356,0.2465,0.2491,0.2217,0.2217,0.2217,0,0,0.2264,0.2253,0.225,0.2239,0.2234,0.2234,0.223,0.2232,0.2236,0.2231,0.2263,0.2275,0.2263,0.229,0.2298,0.2283,0.2402,0.2309,0.2315,0.2365,0.2472,0.25,0.2524,0.222,0.2219,0.2219,0,0,0.2274,0.2261,0.2279,0.2273,0.2271,0.2252,0.2256,0.226,0.2272,0.2309,0.2302,0.2357,0.2353,0.2369,0.2369,0.2432,0.2441,0.2407,0.2516,0.262,0.2645,0.2667,0.2746,0.2775,0.242,0.242,0.242,0,0.2296,0.2272,0.228,0.2296,0.2277,0.226,0.226,0.2271,0.2286,0.2329,0.2328,0.2426,0.24,0.2466,0.2489,0.2455,0.2516,0.2468,0.2637,0.266,0.2681,0.2757,0.2788,0.2425,0.2424,0.2424,0.2423,0,0.2297,0.2297,0.2297,0.2295,0.2302,0.2271,0.2282,0.2319,0.2341,0.2376,0.2478,0.2507,0.2584,0.2565,0.2549,0.2677,0.267,0.2629,0.2614,0.2715,0.2787,0.2817,0.2431,0.243,0.2428,0.2427,0,0,0.2288,0.2294,0.2298,0.2304,0.2277,0.2286,0.2312,0.2341,0.2421,0.2483,0.2609,0.2645,0.2727,0.2738,0.2738,0.2835,0.3011,0.2816,0.282,0.2906,0.3255,0.3014,0.3024,0.3011,0.3018,0.3022,0.3238,0,0.227,0.2277,0.2286,0.2289,0.228,0.2296,0.2335,0.2395,0.2462,0.2594,0.2681,0.2791,0.2763,0.2844,0.2939,0.2999,0.3101,0.2958,0.3137,0.3143,0.2926,0.3054,0.2754,0.2901,0.3268,0.3273,0.3277,0,0.2269,0.2255,0.2248,0.2292,0.2302,0.2336,0.2424,0.2469,0.2636,0.2721,0.2885,0.2953,0.3121,0.3079,0.33,0.3219,0.3265,0.3306,0.3314,0.3094,0.296,0.2863,0.2943,0.3328,0.3324,0.332,0.3317,0,0.2226,0.225,0.2226,0.2221,0.2266,0.2335,0.2395,0.2541,0.2633,0.2849,0.2972,0.3155,0.3284,0.3407,0.3458,0.3426,0.3677,0.3625,0.3457,0.344,0.3223,0.3173,0.38,0.38,0.3799,0.3799,0.3798,0,0.2157,0.2173,0.2235,0.2211,0.2303,0.2361,0.2507,0.2619,0.2802,0.2932,0.3071,0.3195,0.3383,0.3506,0.3552,0.3589,0.3754,0.3529,0.3499,0.3232,0.3184,0.3576,0.3547,0.3807,0.3805,0.3803,0.3802,0,0.2153,0.2128,0.2173,0.2239,0.2285,0.2397,0.2589,0.2699,0.2867,0.3053,0.3132,0.3308,0.3462,0.3578,0.3762,0.3679,0.3744,0.3695,0.3345,0.3268,0.3431,0.3404,0.3611,0.3604,0.3599,0.3595,0.3591,0,0.2156,0.2156,0.2244,0.2288,0.2338,0.2489,0.258,0.2746,0.2844,0.3074,0.3143,0.3346,0.3395,0.355,0.3509,0.3561,0.3667,0.3246,0.3107,0.3471,0.3424,0.3404,0.3385,0.2874,0.2865,0.2858,0.2851,0,0.2191,0.2234,0.2253,0.2344,0.2438,0.2531,0.267,0.2739,0.2896,0.3011,0.3099,0.3153,0.3258,0.3123,0.3138,0.3116,0.3214,0.3084,0.3634,0.2908,0.2777,0.2728,0.2735,0.2784,0.2791,0.2795,0.2799,0.2802,0.2261,0.2317,0.2328,0.2427,0.2487,0.2514,0.2572,0.2639,0.2721,0.2765,0.2888,0.2836,0.2837,0.2694,0.2617,0.2578,0.2816,0.2671,0.2697,0.273,0.2546,0.2406,0.2311,0.2314,0.2318,0.2321,0.2324,0,0.2287,0.2333,0.2407,0.2432,0.243,0.2532,0.2556,0.2497,0.2477,0.2498,0.2489,0.2222,0.2106,0.2174,0.1987,0.1935,0.196,0.1865,0.1885,0.1952,0.2011,0.1792,0.1358,0.1355,0.1352,0.135,0,0,0.2281,0.2305,0.2318,0.2305,0.2377,0.2348,0.2344,0.222,0.2139,0.1953,0.1882,0.1951,0.2041,0.166,0.1601,0.1451,0.1697,0.1387,0.2158,0.2247,0.2304,0.2465,0.2199,0,0,0,0,0]},{"header":{"parameterUnit":"m.s-1","parameterCategory":2,"la1":30.2991,"la2":30.254,"lo1":-89.0895,"lo2":-89.0444,"dy":0.0017,"dx":0.0017,"nx":28,"ny":28,"refTime":"2023-08-03T03:00:00:Z","depth":"2","parameterNumber":3,"parameterNumberName":"V-component_of_CURRENTS"},"data":[0,0,0,0,0,0,0,0,0,0,0,0,0,0,0,0,0,0,0,0,0,0,0,0,0,0,0,0,0,0,0,0,0,0,0,0,0,0,0,0,0,0,0,0,0,0,0,0,0,0,0,0,0,0,0,0,0,0,-0.0005,-0.0005,0,-0.0021,-0.0022,-0.0022,-0.0028,-0.0028,-0.0028,-0.0028,-0.0052,-0.0053,-0.0054,0,0,0,0,0,0,0,0,0,0,0,0,0,-0.0008,-0.0008,-0.0005,-0.0005,-0.0005,-0.0021,-0.0022,-0.0022,-0.0028,-0.0028,-0.0028,-0.0028,-0.0052,-0.0053,-0.0054,0,0,0,0,0,0,0,0,0,0,0,0,0,-0.0014,-0.0008,-0.0005,-0.001,-0.0011,-0.0021,-0.0022,-0.0022,-0.0028,-0.0028,-0.0028,-0.0028,-0.0052,-0.0053,-0.0054,-0.0063,0,0,-0.0057,-0.0058,0,0,0,0,0,0,0,0,-0.0014,-0.0014,-0.0009,-0.001,-0.001,-0.0022,-0.0032,-0.0036,-0.0028,-0.0022,-0.0028,-0.0028,-0.0043,-0.0044,-0.0048,-0.0064,-0.0065,-0.0057,-0.0058,-0.0058,-0.0059,0,0,0,0,0,0,0,-0.0014,-0.0014,-0.0012,-0.0009,-0.001,-0.0021,-0.0022,-0.0033,-0.0034,-0.0023,-0.0023,-0.0024,-0.0043,-0.0047,-0.0049,-0.0066,-0.0057,-0.0058,-0.0059,-0.0059,-0.0083,-0.0083,0,0,0,0,0,0,-0.0009,-0.0013,-0.0011,-0.0012,-0.0011,-0.0021,-0.0022,-0.0019,-0.0033,-0.0035,-0.0024,-0.0024,-0.0046,-0.0048,-0.005,-0.0057,-0.0058,-0.0059,-0.006,-0.0083,-0.0083,-0.0083,0,0,0,0,0,0,-0.0009,-0.0009,-0.0011,-0.0013,-0.0014,-0.0021,-0.0018,-0.0019,-0.002,-0.0034,-0.0036,-0.0023,-0.0046,-0.0048,-0.0057,-0.0058,-0.006,-0.0061,-0.0083,-0.0083,-0.0083,-0.0073,0,0,0,0,0,0,-0.0009,-0.0008,-0.001,-0.0013,-0.0014,-0.0011,-0.0018,-0.002,-0.0021,-0.0021,-0.0034,-0.0036,-0.0046,-0.0055,-0.0058,-0.0059,-0.0062,-0.0083,-0.0083,-0.0083,-0.0074,-0.0073,-0.0072,0,0,0,0,0,-0.0009,-0.0007,-0.0009,-0.0009,-0.0013,-0.001,-0.0012,-0.0017,-0.0021,-0.0018,-0.003,-0.0036,-0.0057,-0.0056,-0.0059,-0.0061,-0.0083,-0.0083,-0.0083,-0.0074,-0.0073,-0.0072,0,0,0,0,0,0,-0.0012,-0.0007,-0.001,-0.0008,-0.0007,-0.0011,-0.0012,-0.0015,-0.0022,-0.0022,-0.0037,-0.004,-0.0047,-0.0055,-0.0054,-0.0067,-0.0071,-0.0071,-0.0063,-0.0062,-0.0061,-0.0045,-0.0063,0,0,0,0,0,-0.0013,-0.0006,-0.0006,-0.0004,-0.0003,-0.0008,-0.0009,-0.0009,-0.0014,-0.0017,-0.0027,-0.0038,-0.005,-0.0056,-0.0065,-0.0074,-0.0049,-0.0077,-0.0076,-0.0076,-0.0064,-0.0018,-0.0012,-0.0083,-0.0083,-0.0083,0,0,-0.0015,-0.001,-0.0008,-0.0004,-0.0005,0.0002,-0.0008,-0.0003,0.0001,-0.0019,-0.002,-0.0035,-0.0051,-0.006,-0.0064,-0.0067,-0.0044,-0.0076,-0.0075,-0.0064,-0.0017,-0.001,-0.0004,-0.0083,-0.0083,-0.0083,0,0,-0.0004,-0.0009,0.0004,0.0007,0.0012,0.001,0.0013,0.0012,0.0009,0.0006,-0.0009,-0.0021,-0.0039,-0.005,-0.0059,-0.0059,-0.0041,-0.0067,-0.0053,-0.0009,-0.0002,0.0004,0.0041,0.0051,-0.0069,-0.0069,-0.0069,0,-0.0008,0.001,0.0006,0.0021,0.0025,0.0016,0.003,0.0024,0.0021,0.0024,0.001,0.0,-0.0031,-0.0027,-0.0046,-0.0057,-0.0027,-0.0056,-0.0006,0.0001,0.0007,0.0043,0.0054,-0.0068,-0.0068,-0.0068,-0.0068,0,0.0018,0.0028,0.0035,0.0051,0.0053,0.0064,0.006,0.0061,0.0053,0.0051,0.0057,0.0028,0.0028,0.0003,-0.0034,-0.0011,-0.0003,-0.0007,-0.0004,0.0015,0.0052,0.0062,-0.0067,-0.0068,-0.0068,-0.0068,0,0,0.0024,0.0048,0.0052,0.0067,0.0072,0.0083,0.0086,0.0094,0.0126,0.01,0.0149,0.0078,0.0076,0.0065,0.0035,0.0044,0.0081,0.0026,0.0029,0.007,0.0185,0.0113,0.0118,0.0093,0.0095,0.0096,0.0191,0,0.0045,0.0081,0.0086,0.0115,0.0131,0.0125,0.0144,0.015,0.0158,0.0203,0.0171,0.0198,0.0099,0.0114,0.0103,0.0106,0.0111,0.0056,0.0154,0.0157,0.0097,0.0129,0.0122,0.0199,0.0201,0.0203,0.0205,0,0.0072,0.0094,0.0124,0.0165,0.0175,0.0183,0.0227,0.0244,0.0285,0.0306,0.0317,0.0316,0.0312,0.0246,0.0251,0.0226,0.0194,0.0185,0.0189,0.013,0.0106,0.018,0.0219,0.0223,0.0221,0.022,0.0219,0,0.0085,0.0123,0.015,0.0159,0.0198,0.0207,0.0225,0.0263,0.0327,0.0377,0.0454,0.0443,0.0486,0.0443,0.0367,0.0331,0.04,0.0361,0.027,0.0265,0.0281,0.0274,0.0372,0.0372,0.0371,0.0371,0.0371,0,0.0106,0.0129,0.0155,0.0168,0.0227,0.0231,0.0312,0.0334,0.0432,0.0564,0.0507,0.0627,0.054,0.0557,0.0456,0.0398,0.047,0.0286,0.0289,0.028,0.0272,0.0306,0.0297,0.0375,0.0374,0.0373,0.0373,0,0.011,0.0128,0.0168,0.0208,0.0231,0.0264,0.0378,0.0471,0.0523,0.0707,0.0739,0.0799,0.081,0.0704,0.0673,0.0534,0.0472,0.0425,0.0404,0.04,0.0289,0.0279,0.036,0.0359,0.0357,0.0356,0.0355,0,0.0116,0.0132,0.0195,0.0253,0.0268,0.0337,0.0432,0.0507,0.0647,0.0835,0.0967,0.1003,0.1054,0.0935,0.0722,0.0548,0.0512,0.0403,0.03,0.0294,0.029,0.0283,0.0275,0.0339,0.0338,0.0338,0.0337,0,0.0139,0.0155,0.0204,0.0313,0.0402,0.0534,0.0669,0.0799,0.0954,0.1094,0.1296,0.1325,0.1187,0.1001,0.0707,0.0575,0.0417,0.0376,0.044,0.031,0.0273,0.0269,0.0263,0.0329,0.033,0.0331,0.0331,0.0331,0.0177,0.0223,0.0306,0.0413,0.0544,0.0748,0.0867,0.105,0.1269,0.1465,0.1498,0.1489,0.1265,0.0857,0.0642,0.0379,0.0388,0.0267,0.0271,0.0276,0.0224,0.0183,0.0214,0.0214,0.0214,0.0214,0.0214,0,0.0266,0.0328,0.0423,0.0585,0.0757,0.0793,0.1069,0.1194,0.1448,0.1537,0.1617,0.1366,0.1142,0.0878,0.0478,0.0241,0.0229,0.0168,0.0208,0.0216,0.0223,0.0169,0.0144,0.0144,0.0143,0.0143,0,0,0.0328,0.045,0.0498,0.0773,0.0879,0.1104,0.1261,0.1414,0.1517,0.1574,0.1522,0.1442,0.1159,0.0859,0.0572,0.0356,0.033,0.0303,0.0378,0.0466,0.0476,0.0295,0.0221,0,0,0,0,0]}],[{"header":{"parameterUnit":"m.s-1","parameterCategory":2,"la1":30.2991,"la2":30.254,"lo1":-89.0895,"lo2":-89.0444,"dy":0.0017,"dx":0.0017,"nx":28,"ny":28,"refTime":"2023-08-03T03:00:00:Z","depth":"4","parameterNumber":2,"parameterNumberName":"U-component_of_CURRENTS"},"data":[0,0,0,0,0,0,0,0,0,0,0,0,0,0,0,0,0,0,0,0,0,0,0,0,0,0,0,0,0,0,0,0,0,0,0,0,0,0,0,0,0,0,0,0,0,0,0,0,0,0,0,0,0,0,0,0,0,0,0.1063,0.1063,0,0.1113,0.1113,0.1114,0.1167,0.1168,0.1168,0.1169,0.1186,0.1186,0.1185,0,0,0,0,0,0,0,0,0,0,0,0,0,0.1044,0.1043,0.1063,0.1064,0.1064,0.1113,0.1113,0.1114,0.1167,0.1168,0.1169,0.117,0.1186,0.1186,0.1185,0,0,0,0,0,0,0,0,0,0,0,0,0,0.1068,0.1043,0.1063,0.1097,0.1101,0.1113,0.1113,0.1114,0.1166,0.1168,0.1169,0.117,0.1186,0.1186,0.1185,0.1158,0,0,0.1184,0.1184,0,0,0,0,0,0,0,0,0.1066,0.1068,0.1091,0.1095,0.1099,0.1136,0.1113,0.1127,0.1166,0.114,0.1169,0.1171,0.1166,0.1167,0.1173,0.1159,0.116,0.1184,0.1184,0.1183,0.1183,0,0,0,0,0,0,0,0.1064,0.1067,0.1082,0.1092,0.1096,0.112,0.1125,0.1116,0.1144,0.1143,0.1147,0.1153,0.1168,0.1173,0.1174,0.116,0.1184,0.1184,0.1183,0.1183,0.1222,0.1223,0,0,0,0,0,0,0.1057,0.1065,0.108,0.1083,0.1086,0.112,0.1125,0.1122,0.1145,0.1151,0.1152,0.1156,0.1174,0.1174,0.1174,0.1222,0.1183,0.1183,0.1183,0.1221,0.1222,0.1224,0,0,0,0,0,0,0.1056,0.1057,0.1078,0.1077,0.1081,0.1119,0.1115,0.1122,0.1159,0.1153,0.1158,0.1185,0.1175,0.1175,0.1185,0.122,0.1183,0.1182,0.1219,0.1221,0.1223,0.1266,0,0,0,0,0,0,0.1055,0.1056,0.1065,0.1076,0.1081,0.1102,0.1114,0.1122,0.1159,0.1165,0.1182,0.1183,0.1176,0.1186,0.1185,0.1219,0.1182,0.1217,0.122,0.1222,0.1263,0.127,0.1275,0,0,0,0,0,0.1054,0.1056,0.1064,0.1067,0.1086,0.1102,0.1108,0.1138,0.116,0.1176,0.1185,0.1184,0.1202,0.1185,0.1184,0.1219,0.1216,0.1219,0.1222,0.1261,0.1268,0.1275,0,0,0,0,0,0,0.1054,0.1062,0.1071,0.1077,0.1096,0.1112,0.1136,0.1152,0.1174,0.1188,0.1185,0.1186,0.121,0.1206,0.1189,0.124,0.1215,0.1218,0.1245,0.1252,0.1258,0.1214,0.1182,0,0,0,0,0,0.1055,0.106,0.1073,0.1081,0.1096,0.1121,0.1138,0.1157,0.1171,0.1185,0.1196,0.121,0.1215,0.1228,0.1227,0.1246,0.1259,0.1274,0.128,0.1285,0.125,0.1337,0.1347,0.1233,0.1233,0.1233,0,0,0.1059,0.1064,0.1069,0.1083,0.1105,0.1111,0.1135,0.1168,0.1167,0.118,0.1198,0.1223,0.1222,0.1245,0.1259,0.1252,0.1326,0.1289,0.1293,0.1254,0.1341,0.1352,0.1362,0.1235,0.1235,0.1235,0,0,0.1059,0.1076,0.108,0.1096,0.1127,0.1131,0.1145,0.1176,0.1191,0.1209,0.1221,0.1264,0.1276,0.1287,0.129,0.1326,0.1348,0.1348,0.1348,0.1435,0.1445,0.1453,0.1491,0.1502,0.136,0.136,0.136,0,0.1067,0.1057,0.1087,0.1095,0.1096,0.1139,0.1134,0.1152,0.1181,0.119,0.1222,0.1257,0.1289,0.129,0.1324,0.1339,0.1376,0.1323,0.1443,0.1452,0.146,0.1496,0.1508,0.1363,0.1362,0.1362,0.1362,0,0.1061,0.1061,0.107,0.1078,0.1089,0.1096,0.1114,0.1134,0.1167,0.1195,0.1224,0.1262,0.1291,0.1327,0.134,0.1406,0.1409,0.1437,0.1424,0.1474,0.1509,0.1521,0.1366,0.1365,0.1364,0.1364,0,0,0.1047,0.1057,0.1063,0.1044,0.1073,0.1068,0.1076,0.1082,0.1112,0.1151,0.1189,0.1221,0.1281,0.1286,0.1323,0.1399,0.1527,0.1453,0.1457,0.1484,0.1695,0.1557,0.1557,0.1596,0.1598,0.1599,0.1698,0,0.1027,0.0992,0.1022,0.0995,0.0964,0.1006,0.101,0.1036,0.1094,0.1161,0.1197,0.1275,0.1252,0.1327,0.1377,0.1505,0.1559,0.1494,0.1642,0.1645,0.1515,0.1567,0.1606,0.1707,0.1709,0.1711,0.1713,0,0.1004,0.0964,0.0917,0.0905,0.0909,0.0926,0.0942,0.0969,0.107,0.1128,0.1185,0.1271,0.1353,0.1381,0.1507,0.1476,0.1572,0.1649,0.1657,0.1508,0.1529,0.1645,0.1734,0.1733,0.1731,0.173,0.1728,0,0.0905,0.0899,0.0837,0.0834,0.0836,0.0849,0.0887,0.097,0.1026,0.1162,0.1252,0.1314,0.1432,0.1504,0.1635,0.1623,0.1796,0.1812,0.1736,0.1727,0.1802,0.1792,0.1901,0.1901,0.1901,0.1901,0.1901,0,0.0827,0.0782,0.08,0.0758,0.0739,0.0795,0.0853,0.0899,0.1049,0.1144,0.1255,0.1333,0.1494,0.1608,0.1666,0.1708,0.1814,0.1714,0.1744,0.1818,0.1809,0.1811,0.1799,0.1905,0.1904,0.1903,0.1902,0,0.0697,0.0711,0.0645,0.0658,0.0686,0.0682,0.0844,0.0903,0.1045,0.1183,0.1251,0.1431,0.1569,0.1656,0.1847,0.1774,0.1834,0.1827,0.1871,0.1906,0.1694,0.1684,0.1742,0.1738,0.1735,0.1732,0.173,0,0.0611,0.0558,0.0565,0.0577,0.0597,0.0652,0.0712,0.0869,0.0966,0.1206,0.1262,0.1483,0.1574,0.1681,0.1775,0.1824,0.1812,0.1803,0.1736,0.1654,0.1679,0.1674,0.1668,0.1724,0.1723,0.1722,0.1722,0,0.0442,0.0467,0.0434,0.046,0.0518,0.0562,0.0684,0.0757,0.0961,0.1098,0.128,0.1391,0.1539,0.164,0.1701,0.1722,0.1779,0.1767,0.1774,0.1711,0.1634,0.166,0.1659,0.171,0.1712,0.1713,0.1713,0,0.0363,0.032,0.0338,0.0364,0.042,0.0476,0.055,0.0704,0.0829,0.1115,0.1174,0.1369,0.1551,0.1589,0.1626,0.1646,0.1623,0.1554,0.1572,0.1585,0.1482,0.1356,0.1364,0,0,0,0,0,0.0295,0.0265,0.0261,0.0292,0.0344,0.0396,0.0532,0.0632,0.0844,0.0944,0.1076,0.1207,0.1332,0.1424,0.1417,0.1512,0.159,0.1488,0.1509,0.1645,0.1658,0.1547,0,0,0,0,0,0,0.027,0.0238,0.0226,0.0238,0.0266,0.0328,0.0418,0.0556,0.0644,0.0864,0.0952,0.11,0.1241,0.1335,0.1388,0.1408,0.1385,0.1604,0.16,0.1637,0.1649,0.166,0.155,0,0,0,0,0]},{"header":{"parameterUnit":"m.s-1","parameterCategory":2,"la1":30.2991,"la2":30.254,"lo1":-89.0895,"lo2":-89.0444,"dy":0.0017,"dx":0.0017,"nx":28,"ny":28,"refTime":"2023-08-03T03:00:00:Z","depth":"4","parameterNumber":3,"parameterNumberName":"V-component_of_CURRENTS"},"data":[0,0,0,0,0,0,0,0,0,0,0,0,0,0,0,0,0,0,0,0,0,0,0,0,0,0,0,0,0,0,0,0,0,0,0,0,0,0,0,0,0,0,0,0,0,0,0,0,0,0,0,0,0,0,0,0,0,0,0.0039,0.0039,0,0.0025,0.0024,0.0024,0.0021,0.0021,0.0021,0.0021,0.0009,0.0008,0.0008,0,0,0,0,0,0,0,0,0,0,0,0,0,0.004,0.004,0.0039,0.0039,0.0039,0.0025,0.0024,0.0024,0.0021,0.0021,0.0021,0.0021,0.0009,0.0008,0.0008,0,0,0,0,0,0,0,0,0,0,0,0,0,0.0034,0.004,0.0039,0.0036,0.0036,0.0025,0.0024,0.0024,0.0021,0.0021,0.0021,0.0021,0.0009,0.0008,0.0008,-0.0001,0,0,0.0005,0.0005,0,0,0,0,0,0,0,0,0.0034,0.0033,0.0037,0.0036,0.0036,0.0025,0.002,0.0016,0.0021,0.0026,0.0021,0.0021,0.0014,0.0013,0.0009,-0.0002,-0.0002,0.0005,0.0005,0.0005,0.0004,0,0,0,0,0,0,0,0.0034,0.0034,0.0033,0.0036,0.0036,0.0027,0.0026,0.0019,0.0019,0.0025,0.0025,0.0024,0.0014,0.001,0.0009,-0.0002,0.0005,0.0005,0.0004,0.0004,-0.0018,-0.0018,0,0,0,0,0,0,0.0038,0.0035,0.0034,0.0033,0.0036,0.0027,0.0026,0.0028,0.0019,0.0018,0.0024,0.0024,0.0011,0.001,0.0009,0.001,0.0005,0.0004,0.0004,-0.0018,-0.0018,-0.0018,0,0,0,0,0,0,0.0038,0.0038,0.0034,0.0033,0.0032,0.0027,0.0029,0.0027,0.0026,0.0018,0.0017,0.0024,0.0011,0.001,0.0003,0.0009,0.0004,0.0003,-0.0017,-0.0018,-0.0018,0.0005,0,0,0,0,0,0,0.0038,0.0039,0.004,0.0034,0.0033,0.0029,0.0028,0.0027,0.0025,0.0025,0.0018,0.0017,0.0011,0.0004,0.0002,0.0008,0.0002,-0.0017,-0.0018,-0.0018,0.0004,0.0006,0.0007,0,0,0,0,0,0.0039,0.0038,0.004,0.004,0.0035,0.0029,0.0028,0.0024,0.0025,0.0024,0.0018,0.0017,0.0001,0.0003,0.0001,0.0007,-0.0017,-0.0017,-0.0018,0.0004,0.0005,0.0006,0,0,0,0,0,0,0.0036,0.0038,0.0039,0.0039,0.0036,0.0029,0.0026,0.0025,0.002,0.0021,0.0014,0.0012,0.0008,0.0001,0.0004,-0.0002,-0.0008,-0.0009,0.0009,0.001,0.0011,0.0055,0.0002,0,0,0,0,0,0.0037,0.0041,0.0038,0.0039,0.0037,0.0033,0.003,0.0029,0.0024,0.0022,0.0016,0.001,0.0004,0.0003,-0.0006,-0.0009,-0.0022,-0.0007,-0.0006,-0.0005,0.0028,-0.0017,-0.0017,-0.0019,-0.0019,-0.0019,0,0,0.0036,0.0038,0.004,0.0039,0.0036,0.0047,0.0031,0.0029,0.0049,0.0021,0.0037,0.0012,0.0003,-0.0,-0.0002,-0.0003,-0.0013,-0.0005,-0.0004,0.0029,-0.0017,-0.0017,-0.0017,-0.0019,-0.0019,-0.0019,0,0,0.0044,0.0038,0.0048,0.005,0.005,0.0051,0.0053,0.0047,0.0053,0.0055,0.0043,0.0029,0.0015,0.0016,0.0014,0.0017,-0.0009,0.0001,0.0047,0.0001,0.0001,0.0002,-0.0022,-0.0024,0.0004,0.0005,0.0005,0,0.0044,0.0065,0.0048,0.0063,0.0079,0.0058,0.0084,0.0083,0.0078,0.0094,0.0065,0.0048,0.0033,0.0046,0.0046,0.0023,-0.0007,0.0043,0.0003,0.0003,0.0003,-0.0021,-0.0024,0.0006,0.0005,0.0005,0.0005,0,0.0066,0.0087,0.0091,0.0113,0.012,0.0135,0.0139,0.0147,0.0143,0.0144,0.0143,0.0103,0.0101,0.0078,0.0067,0.0062,0.004,0.0005,0.0003,0.0005,-0.0021,-0.0024,0.0007,0.0007,0.0006,0.0006,0,0,0.0066,0.0104,0.0108,0.0147,0.0157,0.0174,0.0201,0.0231,0.0258,0.0226,0.025,0.0223,0.0191,0.0188,0.015,0.0111,0.0074,0.0063,0.006,0.0047,-0.0021,-0.0016,-0.002,0.0015,0.0015,0.0014,-0.0041,0,0.0098,0.0159,0.0162,0.0227,0.0267,0.0268,0.0302,0.0321,0.0313,0.0319,0.0281,0.0278,0.0235,0.022,0.0176,0.0093,0.0067,0.0093,-0.0024,-0.0026,-0.0018,-0.0022,0.0014,-0.0043,-0.0044,-0.0044,-0.0045,0,0.0125,0.0174,0.025,0.0324,0.0339,0.0373,0.0432,0.0455,0.0454,0.0438,0.0415,0.0373,0.0338,0.0279,0.0166,0.0175,0.0104,0.0032,0.0027,0.0032,-0.0027,-0.0045,-0.0051,-0.005,-0.005,-0.0049,-0.0049,0,0.0167,0.0237,0.0315,0.0338,0.0406,0.0452,0.0487,0.0504,0.0536,0.0517,0.0504,0.0448,0.0413,0.0304,0.0173,0.0162,0.0026,-0.0012,-0.0063,-0.0064,-0.0062,-0.0061,-0.0069,-0.0069,-0.0069,-0.0068,-0.0068,0,0.0214,0.0276,0.035,0.0398,0.0491,0.0517,0.0598,0.0604,0.0622,0.0643,0.0574,0.0551,0.0412,0.0316,0.0192,0.0056,0.0043,-0.0035,-0.0075,-0.0053,-0.005,-0.0065,-0.0063,-0.0071,-0.007,-0.007,-0.0069,0,0.0254,0.0296,0.0393,0.0486,0.0517,0.0589,0.0677,0.072,0.0717,0.073,0.073,0.064,0.0508,0.0364,0.0185,0.0094,-0.0047,-0.0084,-0.0028,-0.0068,-0.0106,-0.0103,-0.0138,-0.0138,-0.0138,-0.0138,-0.0138,0,0.0281,0.0337,0.0454,0.0507,0.0558,0.0662,0.072,0.0765,0.0797,0.0772,0.0769,0.0676,0.0592,0.0351,0.0191,-0.0019,-0.0049,-0.0106,-0.0107,-0.0076,-0.0112,-0.0109,-0.0106,-0.0139,-0.0139,-0.0139,-0.0139,0,0.0329,0.037,0.0445,0.0557,0.0638,0.0731,0.0815,0.0849,0.0875,0.0873,0.0807,0.0692,0.0549,0.0364,0.0211,0.005,-0.007,-0.0109,-0.0109,-0.0111,-0.0078,-0.0113,-0.0109,-0.0139,-0.0139,-0.0139,-0.0139,0,0.0353,0.0404,0.0489,0.0591,0.0679,0.0757,0.0819,0.086,0.0899,0.087,0.0848,0.0685,0.0611,0.04,0.024,0.01,0.0066,0.0021,0.0013,0.0012,0.0065,0.013,0.0114,0,0,0,0,0,0.037,0.0418,0.0508,0.0618,0.0708,0.0768,0.0846,0.0896,0.0921,0.0885,0.0877,0.074,0.052,0.0421,0.0285,0.0227,0.0033,0.0062,-0.0025,-0.0143,-0.0142,-0.0105,0,0,0,0,0,0,0.037,0.0452,0.0499,0.0607,0.069,0.0795,0.0848,0.0881,0.087,0.0867,0.0755,0.0711,0.0499,0.0601,0.0284,0.0241,0.0168,-0.0035,-0.0038,-0.0144,-0.0143,-0.0142,-0.0104,0,0,0,0,0]}]]